User: anonymous
Location: Observatorio Las Palmas
(29.0667°N, 110.9333°W)
Time: 21:20:32
(UTC-07:00)
Language:

NOAA 19 - Orbit

View from above orbital plane
View from above orbital plane
View from above satellite
View from above satellite

Ground track
Ground track

The orbit data is extracted from the following two-line orbital elements,

1 33591U 09005A   14292.45728897  .00000276  00000-0  17554-3 0  4291
2 33591 098.9583 237.1927 0014913 126.7467 010.8203 14.11784523293528
Epoch (UTC): 19 October 2014 10:58:29
Eccentricity: 0.0014913
inclination: 98.9583°
perigee height: 842 km
apogee height: 864 km
right ascension of ascending node: 237.1927°
argument of perigee: 126.7467°
revolutions per day: 14.11784523
mean anomaly at epoch: 10.8203°
orbit number at epoch: 29352

The dashed part of the orbit path shows where the satellite is in the earth's shadow,  

DLR